Location: Falkner
(32.6954°N, 86.0502°W)
Time: 12:02:26
(UTC+00:00)

ERS-2 - Pass Details

Date: 29 October 2020
Orbit: 493 x 497 km, 98.6° (Epoch: 04 December)

Event Time Altitude Azimuth Distance (km) Brightness Sun altitude
Rises 23:33:30 0° 3° (N) 2,579 5.6 -8.6°
Reaches altitude 10° 23:35:40 10° 356° (N) 1,693 4.8 -9.0°
Maximum altitude 23:39:04 39° 287° (WNW) 754 3.6 -9.7°
Drops below altitude 10° 23:42:27 10° 217° (SW) 1,685 5.5 -10.4°
Sets 23:44:36 0° 209° (SSW) 2,563 6.3 -10.9°
